STARLINK-5974 (56344 NORAD) Tracking and Keplerian Element Data

This shows tracking and keplerian element data for the satellite.

Feedback or suggestion? Click here.




ElementValue
Catalog56344
NameSTARLINK-5974
Epoch Orbit181
Epoch Day127.00001157
Epoch Year2023
RAAN126.4741
Inclination97.6631
Eccentricity0.0001358
Argument of Perigee89.2434
Mean Anonmoly240.7882
Mean Motion15.68179705
Decay Rate-0.00870731
L11 56344U 23058AD 23127.00001157 -.00870731 00000+0 -86868-2 0 9994
L22 56344 97.6631 126.4741 0001358 89.2434 240.7882 15.68179705 1818



Live tracking and technical data element details for STARLINK-5974 (NORAD 56344). STARLINK-5974 can be tracked NOW for your location showing map with azimuth and elevation plus other details from your city location.







IsCatalogInMostPopularTable: catalog: 56344, numindb: 8
Update: records affected: 1



GetName: 56344 STARLINK-5974

Hit Count: updated at: Wed, 07 Jun 2023 08:45:50 GMT